CZ-6A DEB

Satellite information

Favourite Embed

Satellite Type and Status

DEBRISIN ORBIT

Key statistics

Satellite CZ-6A DEB at a glance.

Uptime

1080

Days in orbit

Revolutions

≈ 14.2

Per day

Orbit

SSO

Sun Synchronous Orbit

Inclination

98.9

Latest

Satellite identification and parameters

Extended collection of information and parameters for CZ-6A DEB.

Object identification

Identified? True

Debris? True

Object name: CZ-6A DEB

International designator: 2022-151VE

Object number (NORAD): 55189

Object ID (CCSDS): 55189

Country: PEOPLES REPUBLIC OF CHINA (PRC)

Current information (Y/N): Y

RCS size: SMALL

Orbital parameters

Period: 101.591 minutes

Inclination: 98.8516 deg

SMA: 7212.153 km

Apoapsis: 868.656 km

Periapsis: 799.379 km

RAAN: 305.6328 deg

Eccentricy: 0.00480283

Argument of periapsis: 279.953 deg

Mean anomaly: 79.6226 deg

Mean motion: 14.17442333 rev/day

Mean motion (dot): 0.00003996 rev/day2

B* drag term: 0.0019711216 1/REarth

Two-line elements (TLE)

Creation date: Oct. 26, 2025, 2:54 a.m.

Reference frame: TEME

Reference center: EARTH

Epoch: Oct. 25, 2025, 11:17 p.m. UTC

TLE line 0: 0 CZ-6A DEB

TLE line 1: 1 55189U 22151VE 25298.97019661 .00003996 00000-0 19711-2 0 9992

TLE line 2: 2 55189 98.8516 305.6328 0048028 279.9530 79.6226 14.17442333149436

Live tracking on map

Real-time ground track for satellite CZ-6A DEB.

In-orbit conjunctions

A list of the most updated potential collisions computed for object CZ-6A DEB.

Target Orbit TCA Probability of collision Miss distance Type
METEOR 2-8 DEB LEO 2025-09-11 02:16:50 0.0001542549 112.0 (m) DEBRIS
OSCAR 3 LEO 2024-12-27 05:20:39 0.0001528466 121.0 (m) PAYLOAD
METEOR 2-12 DEB LEO 2024-10-10 01:24:42 0.0001595077 744.0 (m) DEBRIS

Associated space launch

Chinese satellite reported for atmospheric/ocean/environmental/spatial parameter research purposes, details TBD.

CZ-6A DEB was lifted into orbit during the mission ‘Long March 6A | Yunhai 3’, on board a Long March 6A space rocket.

The launch took place on Nov. 11, 2022, 10:52 p.m. from Launch Complex 9A.

For more information about the launch, click the button.

Launch to space Long March 6A | Yunhai 3
Long March 6A | Yunhai 3

Agency: N/A

Status: Launch Successful

Launch date: Nov. 11, 2022, 10:52 p.m. UTC

Rocket: Long March 6A

Launch pad: Launch Complex 9A

Location: Taiyuan Satellite Launch Center, People's Republic of China

...

Latest news about this satellite

There are no fresh news available about this satellite. Check back as we update our databases every day.


Newsletter sign-up

Weekly statistics, charts and insights to help you stay on top of the space industry.